Flag for U.S.A. Weather past 2 weeks in Hialeah, Florida, U.S.A.

Now
91 °F

Scattered clouds.


Feels Like: 101 °F
Forecast: 79 / 93 °F
Wind: 7 mph from Northeast

Location: Opa Locka Airport

Current Time: Aug 20, 2014 at 1:41:38 PM

Latest Report: Aug 20, 2014 at 12:53 PM


Visibility: 10 mi

Pressure: 30.08 "Hg

Humidity: 57%

Dew point: 74 °F

Location of HialeahLocation

Historic Weather in Hialeah — Graph

°F

Hialeah temperature yesterday

Maximum temperature yesterday: 91 °F (at 2:53 PM)
Minimum temperature yesterday: 81 °F (at 5:53 AM)
Average temperature yesterday: 86 °F

Past Weeks' High & Low Weather Summary

 TemperatureHumidityPressure
High95 °F (Aug 14, 2:53 PM)94% (Aug 12, 5:53 AM)30.14 "Hg (Aug 12, 5:53 AM)
Low74 °F (Aug 15, 3:53 PM)39% (Aug 14, 2:53 PM)29.96 "Hg (Aug 7, 5:53 PM)
Average84 °F73%30.04 "Hg
* Reported Aug 5 12:53 PM — Aug 20 12:53 PM, Hialeah, Weather by CustomWeather, © 2014

Note: Actual official high and low records may vary slightly from our data, if they occured in-between our weather recording intervals... More about our weather records

Advertising

Hialeah weather history for previous 24 hours

 ConditionsComfort  
Time TempWeatherWind HumidityBarometerVisibility
12:53 PM
Aug 20
91 °FScattered clouds.7 mph57%30.08 "Hg10 mi
11:53 AM93 °FSunny.3 mph54%30.09 "Hg10 mi
10:53 AM89 °FScattered clouds.No wind61%30.10 "Hg10 mi
9:53 AM89 °FSunny.3 mph65%30.09 "Hg10 mi
8:53 AM86 °FSunny.3 mph72%30.07 "Hg10 mi
7:53 AM83 °FClear.3 mph79%30.05 "Hg10 mi
6:53 AM79 °FClear.No wind88%30.03 "Hg10 mi
5:53 AM80 °FClear.No wind85%30.01 "Hg10 mi
4:53 AM79 °FClear.No wind88%30.00 "Hg10 mi
3:53 AM81 °FClear.No wind82%30.01 "Hg10 mi
2:53 AM82 °FPassing clouds.No wind79%30.02 "Hg10 mi
1:53 AM82 °FPassing clouds.3 mph79%30.01 "Hg10 mi
12:53 AM82 °FPassing clouds.3 mph79%30.04 "Hg10 mi
11:53 PM
Aug 19
82 °FClear.No wind74%30.04 "Hg10 mi
10:53 PM84 °FClear.No wind70%30.03 "Hg10 mi
9:53 PM84 °FClear.6 mph70%30.03 "Hg10 mi
8:53 PM85 °FClear.6 mph68%30.02 "Hg10 mi
7:53 PM86 °FSunny.10 mph65%30.00 "Hg10 mi
6:53 PM88 °FSunny.12 mph63%29.99 "Hg10 mi
5:53 PM90 °FScattered clouds.7 mph61%29.98 "Hg10 mi
4:53 PM90 °FPartly sunny.13 mph59%29.98 "Hg10 mi
3:53 PM90 °FPassing clouds.5 mph56%29.99 "Hg10 mi
2:53 PM91 °FPassing clouds.7 mph61%30.01 "Hg10 mi
1:53 PM86 °FThundershowers. Scattered clouds.7 mph70%30.03 "Hg10 mi
1:03 PM88 °FThunderstorms. Sunny.9 mph65%30.04 "Hg10 mi
Weather by CustomWeather, © 2014

See weather overviewHow to use our weather pages